SWR4B LSZH-EDDF

Flight info

Callsign SWR4B
Flight time 0h 44m
Altitude 20000
Route DEGES Z1 SUDEN T164 KOVAN T163 SPESA SPESA4B
Aircraft A343/H-SDE2E3FGHIJ4J5M1P2RWXY/LB1D1

Departure

Time 2026-04-18 10:23
Airport Zürich Airport (LSZH)

Arrival

Time 2026-04-18 11:07
Airport Frankfurt Main Airport (EDDF)
Time Latitude Longitude Altitude Speed Heading
2026-04-18 09:56 47.45192 8.55714 1415 ft 0 kts 186°
2026-04-18 10:09 47.45203 8.55716 1416 ft 3 kts 181°
2026-04-18 10:10 47.45224 8.55715 1414 ft 3 kts 181°
2026-04-18 10:10 47.45240 8.55720 1414 ft 2 kts 217°
2026-04-18 10:10 47.45253 8.55736 1417 ft 3 kts 236°
2026-04-18 10:10 47.45261 8.55762 1416 ft 3 kts 264°
2026-04-18 10:11 47.45261 8.55790 1414 ft 2 kts 276°
2026-04-18 10:11 47.45261 8.55800 1413 ft 0 kts 276°
2026-04-18 10:16 47.45261 8.55799 1413 ft 1 kts 276°
2026-04-18 10:16 47.45265 8.55724 1415 ft 10 kts 275°
2026-04-18 10:16 47.45273 8.55605 1411 ft 13 kts 275°
2026-04-18 10:16 47.45312 8.55464 1414 ft 18 kts 299°
2026-04-18 10:17 47.45413 8.55360 1412 ft 19 kts 335°
2026-04-18 10:17 47.45536 8.55276 1407 ft 21 kts 335°
2026-04-18 10:17 47.45656 8.55209 1409 ft 10 kts
2026-04-18 10:17 47.45680 8.55267 1409 ft 7 kts 84°
2026-04-18 10:18 47.45673 8.55379 1410 ft 15 kts 96°
2026-04-18 10:18 47.45661 8.55547 1415 ft 16 kts 96°
2026-04-18 10:18 47.45650 8.55711 1415 ft 16 kts 96°
2026-04-18 10:18 47.45638 8.55876 1415 ft 17 kts 96°
2026-04-18 10:19 47.45622 8.56073 1415 ft 21 kts 97°
2026-04-18 10:19 47.45608 8.56285 1420 ft 20 kts 95°
2026-04-18 10:19 47.45594 8.56494 1419 ft 21 kts 97°
2026-04-18 10:19 47.45580 8.56696 1427 ft 19 kts 96°
2026-04-18 10:20 47.45566 8.56892 1424 ft 19 kts 96°
2026-04-18 10:20 47.45589 8.57009 1428 ft 6 kts 27°
2026-04-18 10:20 47.45641 8.57022 1429 ft 9 kts
2026-04-18 10:20 47.45667 8.56972 1428 ft 7 kts 274°
2026-04-18 10:21 47.45667 8.56959 1428 ft 0 kts 274°
2026-04-18 10:22 47.45669 8.56920 1428 ft 13 kts 275°
2026-04-18 10:22 47.45697 8.56514 1420 ft 72 kts 276°
2026-04-18 10:22 47.45772 8.55479 1405 ft 129 kts 276°
2026-04-18 10:23 47.45873 8.53951 1558 ft 160 kts 275°
2026-04-18 10:23 47.45991 8.52330 2166 ft 161 kts 277°
2026-04-18 10:23 47.46130 8.50672 2811 ft 166 kts 276°
2026-04-18 10:23 47.46086 8.48873 3234 ft 191 kts 252°
2026-04-18 10:24 47.45373 8.47073 3744 ft 214 kts 233°
2026-04-18 10:24 47.44420 8.45299 4477 ft 225 kts 233°
2026-04-18 10:24 47.43677 8.43262 4876 ft 227 kts 250°
2026-04-18 10:24 47.43205 8.41041 5147 ft 228 kts 255°
2026-04-18 10:25 47.42731 8.38783 5793 ft 233 kts 246°
2026-04-18 10:25 47.41764 8.36886 6770 ft 233 kts 217°
2026-04-18 10:25 47.40279 8.35989 7481 ft 235 kts 191°
2026-04-18 10:25 47.38587 8.35764 7989 ft 260 kts 177°
2026-04-18 10:26 47.36808 8.36599 8394 ft 281 kts 144°
2026-04-18 10:26 47.35586 8.38874 9261 ft 289 kts 111°
2026-04-18 10:26 47.35346 8.41810 10149 ft 295 kts 80°
2026-04-18 10:26 47.36155 8.44616 10742 ft 308 kts 50°
2026-04-18 10:27 47.37866 8.46609 11120 ft 324 kts 22°
2026-04-18 10:27 47.40052 8.47628 11672 ft 334 kts 11°
2026-04-18 10:27 47.42365 8.48337 12095 ft 342 kts
2026-04-18 10:27 47.44658 8.49110 12488 ft 345 kts 12°
2026-04-18 10:28 47.46978 8.50109 13339 ft 348 kts 15°
2026-04-18 10:28 47.49264 8.51303 14249 ft 350 kts 18°
2026-04-18 10:28 47.51537 8.52649 15022 ft 353 kts 20°
2026-04-18 10:28 47.53808 8.54096 15776 ft 357 kts 21°
2026-04-18 10:29 47.56090 8.55595 16535 ft 361 kts 21°
2026-04-18 10:29 47.58394 8.57124 17283 ft 364 kts 21°
2026-04-18 10:29 47.60715 8.58665 18026 ft 368 kts 21°
2026-04-18 10:29 47.63075 8.60222 18723 ft 372 kts 20°
2026-04-18 10:30 47.65452 8.61781 19353 ft 376 kts 20°
2026-04-18 10:30 47.67861 8.63355 19898 ft 380 kts 20°
2026-04-18 10:30 47.70283 8.64936 20151 ft 380 kts 20°
2026-04-18 10:30 47.72649 8.66485 20196 ft 373 kts 20°
2026-04-18 10:31 47.75014 8.68036 20185 ft 371 kts 20°
2026-04-18 10:31 47.77372 8.69580 20184 ft 370 kts 20°
2026-04-18 10:31 47.79735 8.71127 20180 ft 370 kts 20°
2026-04-18 10:31 47.82096 8.72674 20176 ft 370 kts 20°
2026-04-18 10:32 47.84457 8.74221 20178 ft 370 kts 20°
2026-04-18 10:32 47.86819 8.75770 20177 ft 371 kts 20°
2026-04-18 10:32 47.89148 8.77302 20181 ft 371 kts 20°
2026-04-18 10:32 47.91510 8.78858 20177 ft 371 kts 20°
2026-04-18 10:33 47.93873 8.80418 20169 ft 371 kts 20°
2026-04-18 10:33 47.96234 8.81978 20170 ft 371 kts 20°
2026-04-18 10:33 47.98594 8.83538 20175 ft 371 kts 20°
2026-04-18 10:33 48.00957 8.85101 20176 ft 371 kts 20°
2026-04-18 10:34 48.03320 8.86664 20160 ft 371 kts 20°
2026-04-18 10:34 48.05680 8.88228 20149 ft 371 kts 20°
2026-04-18 10:34 48.08038 8.89793 20168 ft 371 kts 20°
2026-04-18 10:34 48.10398 8.91360 20164 ft 371 kts 20°
2026-04-18 10:35 48.12770 8.92936 20172 ft 372 kts 20°
2026-04-18 10:35 48.14332 8.93974 20162 ft 372 kts 20°
2026-04-18 10:35 48.16700 8.95549 20161 ft 372 kts 20°
2026-04-18 10:35 48.19067 8.97126 20163 ft 372 kts 20°
2026-04-18 10:36 48.22206 8.99221 20164 ft 372 kts 20°
2026-04-18 10:36 48.23808 9.00292 20156 ft 372 kts 20°
2026-04-18 10:36 48.26144 9.01855 20162 ft 372 kts 20°
2026-04-18 10:36 48.28511 9.03439 20163 ft 372 kts 20°
2026-04-18 10:37 48.30879 9.05025 20163 ft 372 kts 20°
2026-04-18 10:37 48.33245 9.06610 20152 ft 372 kts 20°
2026-04-18 10:37 48.35608 9.08195 20152 ft 372 kts 20°
2026-04-18 10:37 48.37978 9.09786 20161 ft 372 kts 21°
2026-04-18 10:38 48.40346 9.11379 20153 ft 372 kts 21°
2026-04-18 10:38 48.42709 9.12970 20153 ft 372 kts 21°
2026-04-18 10:38 48.45079 9.14567 20151 ft 372 kts 21°
2026-04-18 10:38 48.47443 9.16163 20149 ft 372 kts 21°
2026-04-18 10:39 48.49811 9.17763 20146 ft 372 kts 21°
2026-04-18 10:39 48.52176 9.19361 20153 ft 372 kts 21°
2026-04-18 10:39 48.54542 9.20962 20157 ft 372 kts 21°
2026-04-18 10:39 48.56882 9.22547 20156 ft 372 kts 21°
2026-04-18 10:40 48.59289 9.23969 20152 ft 369 kts 12°
2026-04-18 10:40 48.61803 9.24554 20160 ft 363 kts 357°
2026-04-18 10:40 48.64295 9.24136 20160 ft 359 kts 345°
2026-04-18 10:40 48.66686 9.23078 20163 ft 357 kts 338°
2026-04-18 10:41 48.68991 9.21669 20154 ft 357 kts 334°
2026-04-18 10:41 48.71247 9.20102 20163 ft 356 kts 333°
2026-04-18 10:41 48.73490 9.18487 20155 ft 357 kts 332°
2026-04-18 10:41 48.75736 9.16881 20156 ft 357 kts 333°
2026-04-18 10:42 48.77963 9.15323 20164 ft 357 kts 333°
2026-04-18 10:42 48.80235 9.13769 20154 ft 358 kts 333°
2026-04-18 10:42 48.82524 9.12227 20160 ft 358 kts 334°
2026-04-18 10:42 48.84801 9.10708 20155 ft 358 kts 334°
2026-04-18 10:43 48.87123 9.09410 20152 ft 360 kts 343°
2026-04-18 10:43 48.89621 9.08891 20156 ft 364 kts 354°
2026-04-18 10:43 48.92170 9.08892 20151 ft 366 kts 359°
2026-04-18 10:43 48.94724 9.09137 20157 ft 367 kts
2026-04-18 10:44 48.97247 9.09505 20151 ft 367 kts
2026-04-18 10:44 48.99786 9.09924 20156 ft 368 kts
2026-04-18 10:44 49.02353 9.10352 20146 ft 368 kts
2026-04-18 10:44 49.04891 9.10763 20153 ft 368 kts
2026-04-18 10:45 49.07420 9.11153 20152 ft 368 kts
2026-04-18 10:45 49.09964 9.11531 20155 ft 368 kts
2026-04-18 10:45 49.12531 9.11904 20156 ft 368 kts
2026-04-18 10:45 49.15078 9.12269 20153 ft 368 kts
2026-04-18 10:46 49.17622 9.12632 20166 ft 368 kts
2026-04-18 10:46 49.20156 9.12995 20158 ft 368 kts
2026-04-18 10:46 49.22697 9.13357 20158 ft 368 kts
2026-04-18 10:46 49.25254 9.13720 20161 ft 368 kts
2026-04-18 10:47 49.27823 9.14084 20160 ft 368 kts
2026-04-18 10:47 49.30355 9.14447 20161 ft 368 kts
2026-04-18 10:47 49.32911 9.14814 20160 ft 368 kts
2026-04-18 10:47 49.35461 9.15177 20162 ft 368 kts
2026-04-18 10:48 49.38011 9.15539 20159 ft 368 kts
2026-04-18 10:48 49.40566 9.15901 20163 ft 368 kts
2026-04-18 10:48 49.43122 9.16267 20161 ft 369 kts
2026-04-18 10:48 49.45648 9.16627 20161 ft 369 kts
2026-04-18 10:49 49.48188 9.16992 19864 ft 365 kts
2026-04-18 10:49 49.50737 9.17358 18990 ft 371 kts
2026-04-18 10:49 49.53335 9.17729 18085 ft 376 kts
2026-04-18 10:49 49.55942 9.18103 17371 ft 374 kts
2026-04-18 10:50 49.58500 9.18475 16885 ft 365 kts
2026-04-18 10:50 49.61003 9.18842 16435 ft 357 kts
2026-04-18 10:50 49.63456 9.19319 15984 ft 354 kts
2026-04-18 10:50 49.65791 9.20552 15518 ft 357 kts 24°
2026-04-18 10:51 49.67855 9.22702 15046 ft 359 kts 36°
2026-04-18 10:51 49.69745 9.25277 14583 ft 363 kts 41°
2026-04-18 10:51 49.71569 9.27963 14129 ft 362 kts 37°
2026-04-18 10:51 49.73658 9.30069 13642 ft 356 kts 21°
2026-04-18 10:52 49.75980 9.31299 13161 ft 351 kts 12°
2026-04-18 10:52 49.78335 9.32193 12739 ft 346 kts 10°
2026-04-18 10:52 49.80681 9.32997 12331 ft 343 kts
2026-04-18 10:52 49.83032 9.33386 11906 ft 338 kts 355°
2026-04-18 10:53 49.85302 9.32592 11490 ft 333 kts 334°
2026-04-18 10:53 49.87175 9.30627 11082 ft 329 kts 313°
2026-04-18 10:53 49.88455 9.27735 10975 ft 327 kts 292°
2026-04-18 10:53 49.89010 9.24381 10885 ft 316 kts 273°
2026-04-18 10:54 49.89122 9.21055 10730 ft 300 kts 275°
2026-04-18 10:54 49.89509 9.18000 10611 ft 279 kts 283°
2026-04-18 10:54 49.90006 9.15187 10475 ft 261 kts 284°
2026-04-18 10:54 49.90497 9.12558 10341 ft 246 kts 284°
2026-04-18 10:55 49.90969 9.10058 10218 ft 239 kts 284°
2026-04-18 10:55 49.91432 9.07608 10118 ft 240 kts 285°
2026-04-18 10:55 49.91902 9.05116 10047 ft 240 kts 285°
2026-04-18 10:55 49.92371 9.02641 9999 ft 239 kts 285°
2026-04-18 10:56 49.92837 9.00165 9947 ft 239 kts 285°
2026-04-18 10:56 49.93301 8.97694 9895 ft 238 kts 285°
2026-04-18 10:56 49.93885 8.95287 9777 ft 239 kts 296°
2026-04-18 10:56 49.94888 8.93237 9673 ft 241 kts 316°
2026-04-18 10:57 49.96316 8.91859 9585 ft 244 kts 338°
2026-04-18 10:57 49.97985 8.91366 9481 ft 246 kts 356°
2026-04-18 10:57 49.99704 8.91399 9400 ft 247 kts
2026-04-18 10:57 50.01416 8.91692 9330 ft 249 kts 14°
2026-04-18 10:58 50.02931 8.92972 9078 ft 250 kts 45°
2026-04-18 10:58 50.03826 8.95178 8840 ft 239 kts 68°
2026-04-18 10:58 50.04404 8.97538 8682 ft 228 kts 71°
2026-04-18 10:58 50.04917 8.99807 8523 ft 217 kts 72°
2026-04-18 10:59 50.05405 9.01970 8366 ft 207 kts 71°
2026-04-18 10:59 50.06063 9.03923 8085 ft 203 kts 51°
2026-04-18 10:59 50.07159 9.05255 7699 ft 200 kts 19°
2026-04-18 10:59 50.08500 9.05285 7233 ft 194 kts 331°
2026-04-18 11:00 50.09593 9.04079 6747 ft 196 kts 314°
2026-04-18 11:00 50.10594 9.02570 6151 ft 206 kts 311°
2026-04-18 11:00 50.11635 9.00953 5541 ft 219 kts 312°
2026-04-18 11:00 50.12787 8.99177 5007 ft 240 kts 313°
2026-04-18 11:01 50.13900 8.97231 4343 ft 243 kts 299°
2026-04-18 11:01 50.14283 8.94728 4027 ft 235 kts 263°
2026-04-18 11:01 50.13900 8.92408 3962 ft 208 kts 252°
2026-04-18 11:02 50.12994 8.88592 3981 ft 192 kts 250°
2026-04-18 11:02 50.12488 8.86484 3993 ft 218 kts 250°
2026-04-18 11:02 50.11948 8.84225 3981 ft 224 kts 250°
2026-04-18 11:02 50.11403 8.81942 3978 ft 225 kts 250°
2026-04-18 11:03 50.10857 8.79651 3978 ft 225 kts 250°
2026-04-18 11:03 50.10310 8.77352 3818 ft 227 kts 250°
2026-04-18 11:03 50.09759 8.75039 3502 ft 229 kts 250°
2026-04-18 11:03 50.09199 8.72693 3126 ft 232 kts 251°
2026-04-18 11:04 50.08643 8.70368 2764 ft 224 kts 251°
2026-04-18 11:04 50.08115 8.68172 2457 ft 208 kts 251°
2026-04-18 11:04 50.07641 8.66180 2192 ft 188 kts 251°
2026-04-18 11:04 50.07207 8.64356 1925 ft 172 kts 251°
2026-04-18 11:05 50.06804 8.62668 1673 ft 161 kts 251°
2026-04-18 11:05 50.06428 8.61096 1449 ft 149 kts 251°
2026-04-18 11:05 50.06077 8.59627 1252 ft 140 kts 252°
2026-04-18 11:05 50.05747 8.58243 1073 ft 135 kts 251°
2026-04-18 11:06 50.05425 8.56868 876 ft 136 kts 251°
2026-04-18 11:06 50.05090 8.55496 681 ft 136 kts 250°
2026-04-18 11:06 50.04762 8.54119 508 ft 135 kts 251°
2026-04-18 11:06 50.04436 8.52745 363 ft 131 kts 250°
2026-04-18 11:07 50.04160 8.51596 360 ft 96 kts 250°
2026-04-18 11:07 50.03962 8.50770 357 ft 69 kts 250°
2026-04-18 11:07 50.03787 8.50307 360 ft 38 kts 220°
2026-04-18 11:07 50.03702 8.50197 357 ft 0 kts 219°
2026-04-18 11:08 50.03665 8.50180 359 ft 9 kts 178°
2026-04-18 11:08 50.03629 8.50251 357 ft 9 kts 95°
2026-04-18 11:08 50.03646 8.50350 357 ft 10 kts 69°
2026-04-18 11:08 50.03674 8.50466 357 ft 14 kts 69°
2026-04-18 11:09 50.03713 8.50628 356 ft 17 kts 69°
2026-04-18 11:09 50.03756 8.50811 357 ft 19 kts 70°
2026-04-18 11:09 50.03803 8.51009 360 ft 20 kts 69°
2026-04-18 11:09 50.03855 8.51219 357 ft 21 kts 70°
2026-04-18 11:10 50.03906 8.51435 354 ft 18 kts 69°
2026-04-18 11:10 50.03944 8.51599 356 ft 9 kts 70°
2026-04-18 11:10 50.03969 8.51705 357 ft 12 kts 70°
2026-04-18 11:10 50.04001 8.51832 360 ft 14 kts 69°
2026-04-18 11:11 50.04038 8.51978 358 ft 15 kts 68°
2026-04-18 11:11 50.04076 8.52142 355 ft 18 kts 70°
2026-04-18 11:11 50.04125 8.52350 359 ft 21 kts 70°
2026-04-18 11:11 50.04179 8.52572 357 ft 22 kts 69°
2026-04-18 11:12 50.04234 8.52802 354 ft 23 kts 69°
2026-04-18 11:12 50.04290 8.53036 357 ft 24 kts 69°
2026-04-18 11:12 50.04348 8.53276 352 ft 23 kts 69°
2026-04-18 11:12 50.04399 8.53519 358 ft 24 kts 82°
2026-04-18 11:13 50.04417 8.53779 350 ft 25 kts 84°
2026-04-18 11:13 50.04435 8.54048 355 ft 25 kts 84°
2026-04-18 11:13 50.04453 8.54326 354 ft 26 kts 84°
2026-04-18 11:13 50.04429 8.54603 358 ft 26 kts 117°
2026-04-18 11:14 50.04294 8.54786 358 ft 26 kts 157°
2026-04-18 11:14 50.04152 8.54867 356 ft 17 kts 160°
2026-04-18 11:14 50.04108 8.54892 354 ft 0 kts 159°
2026-04-18 11:15 50.04091 8.54902 358 ft 8 kts 159°
2026-04-18 11:15 50.04028 8.54938 353 ft 12 kts 160°
2026-04-18 11:15 50.03929 8.54998 354 ft 16 kts 159°
2026-04-18 11:15 50.03849 8.55096 356 ft 13 kts 94°
2026-04-18 11:16 50.03879 8.55230 354 ft 14 kts 69°
2026-04-18 11:16 50.03915 8.55381 360 ft 17 kts 69°
2026-04-18 11:16 50.03963 8.55580 360 ft 21 kts 70°
2026-04-18 11:16 50.04014 8.55795 358 ft 22 kts 70°
2026-04-18 11:17 50.04069 8.56023 358 ft 23 kts 69°
2026-04-18 11:17 50.04124 8.56253 358 ft 23 kts 69°
2026-04-18 11:17 50.04181 8.56492 357 ft 24 kts 69°
2026-04-18 11:17 50.04232 8.56705 353 ft 15 kts 70°
2026-04-18 11:18 50.04270 8.56866 358 ft 17 kts 70°
2026-04-18 11:18 50.04304 8.57004 356 ft 11 kts 68°
2026-04-18 11:18 50.04333 8.57128 358 ft 13 kts 70°
2026-04-18 11:18 50.04370 8.57282 358 ft 19 kts 69°
2026-04-18 11:19 50.04418 8.57474 351 ft 14 kts 71°
2026-04-18 11:19 50.04483 8.57570 356 ft 12 kts 356°
2026-04-18 11:19 50.04563 8.57521 358 ft 13 kts 338°
2026-04-18 11:19 50.04642 8.57476 357 ft 9 kts
2026-04-18 11:20 50.04700 8.57523 358 ft 10 kts 28°
2026-04-18 11:20 50.04727 8.57546 357 ft 0 kts 28°
2026-04-18 11:20 50.04728 8.57547 357 ft 0 kts 28°